Minden, LA

10:38 PM CDT on May 27, 2018 (GMT -0500)
Minden

Weather History for KMNE - October, 2012

Change the Weather History Date:

Monday, October 8, 2012

  Actual Average (KBAD) Record (KBAD)
Temperature  
Mean Temperature 54 °F -  
Max Temperature 63 °F 75 °F 92 °F (2017)
Min Temperature 45 °F 55 °F 39 °F (2000)
Degree Days  
Heating Degree Days 12    
Growing Degree Days 4 (Base 50)    
Moisture  
Dew Point 45 °F    
Average Humidity 77    
Maximum Humidity 93    
Minimum Humidity 51    
Precipitation  
Precipitation 0.02 in - - ()
Sea Level Pressure  
Sea Level Pressure 30.21 in    
Wind  
Wind Speed 3 mph ()    
Max Wind Speed 7 mph    
Max Gust Speed -    
Visibility 9.9 miles    
Events Rain    
Averages and records for this station are not official NWS values.
T = Trace of Precipitation, MM = Missing Value Source: Averaged Metar Reports

Daily Weather History Graph

Daily Weather History Graph

Search for Another Location

Airport or City:

Astronomy

Oct. 08, 2012 Rise Set
Actual Time 7:12 AM CDT 6:48 PM CDT
Civil Twilight 6:47 AM CDT 7:12 PM CDT
Nautical Twilight 6:19 AM CDT 7:41 PM CDT
Astronomical Twilight 5:50 AM CDT 8:09 PM CDT
Moon 12:14 AM CDT (10/8) 2:18 PM CDT (10/8)
Length of Visible Light 12h 25m
Length of Day
11h 35m
Last Quarter, 46% of the Moon is Illuminated
Oct 8
Last Quarter
Oct 15
New
Oct 21
First Quarter
Oct 29
Full
Nov 6
Last Quarter

Hourly Weather History & Observations

Time (CDT) Temp. Dew Point Humidity Pressure Visibility Wind Dir Wind Speed Gust Speed Precip Events Conditions
12:15 AM 50.5 °F 46.4 °F 86% 30.21 in 10.0 mi North 3.5 mph - N/A Rain Light Rain
12:35 AM 49.5 °F 46.4 °F 89% 30.21 in 7.0 mi North 4.6 mph - N/A Rain Rain
12:55 AM 49.3 °F 46.4 °F 90% 30.22 in 10.0 mi North 4.6 mph - 0.01 in Rain Rain
1:15 AM 49.1 °F 46.6 °F 91% 30.22 in 7.0 mi Calm Calm - 0.01 in   Drizzle
1:35 AM 48.9 °F 46.4 °F 91% 30.23 in 7.0 mi North 3.5 mph - 0.01 in   Light Drizzle
1:55 AM 48.4 °F 45.7 °F 90% 30.23 in 10.0 mi North 4.6 mph - 0.01 in Rain Light Rain
2:15 AM 48.2 °F 45.7 °F 91% 30.22 in 10.0 mi NE 3.5 mph - N/A   Overcast
2:35 AM 48.2 °F 45.5 °F 90% 30.23 in 10.0 mi NNE 3.5 mph - N/A   Overcast
2:55 AM 47.8 °F 45.1 °F 90% 30.22 in 10.0 mi Calm Calm - N/A   Overcast
3:15 AM 47.7 °F 45.0 °F 90% 30.22 in 10.0 mi North 3.5 mph - N/A   Overcast
3:35 AM 47.8 °F 45.5 °F 92% 30.22 in 10.0 mi North 3.5 mph - N/A   Overcast
3:55 AM 47.7 °F 45.5 °F 92% 30.21 in 10.0 mi Calm Calm - N/A   Overcast
4:15 AM 48.2 °F 45.7 °F 91% 30.21 in 10.0 mi Calm Calm - N/A   Overcast
4:35 AM 47.8 °F 45.1 °F 90% 30.21 in 10.0 mi Calm Calm - N/A   Overcast
4:55 AM 47.3 °F 44.6 °F 90% 30.21 in 10.0 mi NE 3.5 mph - N/A   Overcast
5:15 AM 47.3 °F 44.6 °F 90% 30.22 in 10.0 mi Calm Calm - N/A   Overcast
5:35 AM 47.3 °F 44.6 °F 90% 30.22 in 10.0 mi Calm Calm - N/A   Overcast
5:55 AM 47.3 °F 44.6 °F 90% 30.22 in 10.0 mi Calm Calm - N/A   Overcast
6:15 AM 47.7 °F 44.4 °F 89% 30.22 in 10.0 mi Calm Calm - N/A   Overcast
6:35 AM 47.5 °F 44.6 °F 90% 30.23 in 10.0 mi Calm Calm - N/A   Overcast
6:55 AM 47.5 °F 44.4 °F 89% 30.23 in 10.0 mi Calm Calm - N/A   Overcast
7:15 AM 47.5 °F 44.6 °F 90% 30.23 in 10.0 mi Calm Calm - N/A   Overcast
7:35 AM 47.5 °F 45.0 °F 91% 30.24 in 10.0 mi North 3.5 mph - N/A   Overcast
7:55 AM 47.3 °F 44.6 °F 90% 30.24 in 10.0 mi NNE 3.5 mph - N/A   Overcast
8:15 AM 47.8 °F 44.4 °F 88% 30.25 in 10.0 mi Calm Calm - N/A   Overcast
8:35 AM 47.7 °F 43.9 °F 87% 30.26 in 10.0 mi Calm Calm - N/A   Mostly Cloudy
8:55 AM 49.6 °F 44.4 °F 82% 30.26 in 10.0 mi NE 3.5 mph - N/A   Clear
9:15 AM 50.7 °F 44.2 °F 78% 30.27 in 10.0 mi NE 3.5 mph - N/A   Clear
9:35 AM 52.3 °F 43.9 °F 73% 30.27 in 10.0 mi NE 5.8 mph - N/A   Clear
9:55 AM 53.4 °F 43.2 °F 68% 30.27 in 10.0 mi NNE 5.8 mph - N/A   Clear
10:15 AM 54.3 °F 43.2 °F 66% 30.28 in 10.0 mi ENE 5.8 mph - N/A   Scattered Clouds
10:35 AM 53.6 °F 42.8 °F 67% 30.28 in 10.0 mi ENE 6.9 mph - N/A   Scattered Clouds
10:55 AM 57.2 °F 43.3 °F 60% 30.28 in 10.0 mi ENE 6.9 mph - N/A   Overcast
11:15 AM 57.6 °F 43.5 °F 59% 30.27 in 10.0 mi East 6.9 mph - N/A   Overcast
11:35 AM 57.0 °F 43.7 °F 61% 30.27 in 10.0 mi ENE 4.6 mph - N/A   Scattered Clouds
11:55 AM 58.3 °F 43.9 °F 59% 30.27 in 10.0 mi East 4.6 mph - N/A   Scattered Clouds
12:15 PM 59.0 °F 44.4 °F 58% 30.26 in 10.0 mi NNE 3.5 mph - N/A   Mostly Cloudy
12:55 PM 60.8 °F 44.2 °F 54% 30.24 in 10.0 mi East 4.6 mph - N/A   Mostly Cloudy
1:15 PM 58.8 °F 43.9 °F 58% 30.23 in 10.0 mi East 3.5 mph - N/A   Overcast
1:35 PM 59.4 °F 44.6 °F 58% 30.22 in 10.0 mi East 6.9 mph - N/A   Mostly Cloudy
1:55 PM 59.5 °F 43.9 °F 56% 30.21 in 10.0 mi NNE 4.6 mph - N/A   Scattered Clouds
2:15 PM 59.5 °F 43.9 °F 56% 30.20 in 10.0 mi North 6.9 mph - N/A   Mostly Cloudy
2:35 PM 62.8 °F 44.6 °F 51% 30.19 in 10.0 mi East 6.9 mph - N/A   Mostly Cloudy
2:55 PM 60.8 °F 43.9 °F 54% 30.18 in 10.0 mi Calm Calm - N/A   Scattered Clouds
3:15 PM 62.1 °F 44.4 °F 52% 30.18 in 10.0 mi ENE 4.6 mph - N/A   Mostly Cloudy
3:35 PM 59.9 °F 44.1 °F 56% 30.18 in 10.0 mi East 3.5 mph - N/A   Mostly Cloudy
3:55 PM 59.9 °F 44.1 °F 56% 30.17 in 10.0 mi NNE 3.5 mph - N/A   Mostly Cloudy
4:15 PM 60.8 °F 43.7 °F 53% 30.17 in 10.0 mi North 3.5 mph - N/A   Mostly Cloudy
4:35 PM 61.3 °F 44.6 °F 54% 30.17 in 10.0 mi North 5.8 mph - N/A   Mostly Cloudy
4:55 PM 59.0 °F 44.8 °F 59% 30.16 in 10.0 mi NNE 3.5 mph - N/A   Mostly Cloudy
5:15 PM 60.8 °F 44.8 °F 56% 30.16 in 10.0 mi ENE 5.8 mph - N/A   Mostly Cloudy
5:35 PM 58.1 °F 44.6 °F 61% 30.16 in 10.0 mi ENE 3.5 mph - N/A   Scattered Clouds
5:55 PM 59.2 °F 44.8 °F 59% 30.15 in 10.0 mi ENE 4.6 mph - N/A   Clear
6:15 PM 58.1 °F 45.3 °F 62% 30.15 in 10.0 mi Calm Calm - N/A   Clear
6:35 PM 56.5 °F 45.5 °F 67% 30.14 in 10.0 mi East 4.6 mph - N/A   Clear
6:55 PM 54.5 °F 46.0 °F 73% 30.14 in 10.0 mi Calm Calm - N/A   Clear
7:15 PM 53.2 °F 45.7 °F 76% 30.15 in 10.0 mi Calm Calm - N/A   Clear
7:35 PM 52.2 °F 45.9 °F 79% 30.15 in 10.0 mi Calm Calm - N/A   Clear
7:55 PM 50.9 °F 46.0 °F 83% 30.15 in 10.0 mi Calm Calm - N/A   Clear
8:15 PM 49.8 °F 45.7 °F 86% 30.16 in 10.0 mi Calm Calm - N/A   Clear
8:35 PM 49.5 °F 45.7 °F 87% 30.16 in 10.0 mi Calm Calm - N/A   Clear
8:55 PM 48.7 °F 45.5 °F 89% 30.16 in 10.0 mi Calm Calm - N/A   Clear
9:15 PM 47.5 °F 44.6 °F 90% 30.17 in 10.0 mi Calm Calm - N/A   Clear
9:35 PM 47.5 °F 45.1 °F 92% 30.17 in 10.0 mi Calm Calm - N/A   Clear
9:55 PM 47.3 °F 45.0 °F 92% 30.16 in 10.0 mi Calm Calm - N/A   Clear
10:15 PM 46.4 °F 44.1 °F 92% 30.16 in 10.0 mi Calm Calm - N/A   Clear
10:55 PM 46.0 °F 43.7 °F 92% 30.16 in 10.0 mi Calm Calm - N/A   Clear
11:15 PM 45.3 °F 43.2 °F 92% 30.16 in 10.0 mi Calm Calm - N/A   Clear
11:35 PM 45.7 °F 43.7 °F 93% 30.16 in 10.0 mi Calm Calm - N/A   Clear
11:55 PM 45.5 °F 43.7 °F 93% 30.15 in 10.0 mi Calm Calm - N/A   Clear